Погода в Сарыколе

Казахстан     53°19′00″N   65°32′10″E
темп.,
°C
ветер,
м/с
пор.,
м/с
влажн.,
%
обл.,
%
осадки,
мм/ч
давл.,
гПа
погр.,
м
2 марта, вт
вт200:00−18зсз129647 0.0 101923
03:00−18юз229787 0.1 101820
06:00−19юз239882 0.2 101840
09:00−17ююз2397100 0.3 101681
12:00−15ююз359585 0.3 1016212
15:00−13ююз479590 0.0 1015294
18:00−12ююз5109595 0.1 1014370
21:00−15ююз71395100 0.0 1014318
3 марта, ср
ср300:00−18ююз7149597 0.1 1013295
03:00−19ююз8149593 0.0 1012294
06:00−17ююз8159497 0.1 1012377
09:00−15ююз91593100 0.1 1010428
12:00−11ююз101792100 0.1 1010550
15:00−6юз101693100 0.3 1009858
18:00−4юз101693100 0.8 1008906
21:00−3юз91693100 0.6 1007765
4 марта, чт
чт400:00−3юз91695100 1.1 1006738
03:00−2ююз91596100 1.0 1004766
06:00−1ююз91596100 2.4 1003769
09:00−1юз81396100 1.3 1002751
12:00−1юз81296100 2.2 1002759
15:00−1юз81196100 1.4 1002789
18:00−3з61186100 2.3 1003608
21:00−9зюз5119462 0.0 1006259
5 марта, пт
пт500:00−11зюз5109055 0.0 1010192
03:00−12юз612920 0.0 1011204
06:00−13юз815939 0.0 1012356
09:00−10юз101794100 0.4 1011622
12:00−5юз131994100 1.6 1010914
15:00−3юз132089100 0.4 10101099
18:00−2юз132091100 0.7 10101209
21:00−2юз121994100 0.8 10101090
6 марта, сб
сб600:00−2юз111795100 1.6 1011987
03:00−2юз101695100 1.4 1011882
06:00−1зюз91597100 3.6 1012817
09:00−3зсз5896100 1.3 1014414
12:00−6зсз349196 1.3 1016208
15:00−5зюз2386100 0.0 1016303
18:00−6ююз339388 0.0 101649
21:00−3ю51196100 0.1 1014453